Tracking 35048 objects as of 19-Aug-2026
HD Live streaming from Space Station
objects crossing your sky now

ICEYE-X48

Track ICEYE-X48 now!
10-day predictions
ICEYE-X48 is classified as:


NORAD ID: 63253
Int'l Code: 2025-052AV
Launch date: March 15, 2025
Source: United States (US)
Launch site: AIR FORCE WESTERN TEST RANGE (AFWTR)

Uplink (MHz):
Downlink (MHz): 2269.775
Beacon (MHz):
Mode: FM
Call sign:
Status: Unknown

Your satellite tracking list
Your tracking list is empty




NASA's NSSDC Master Catalog

Two Line Element Set (TLE):
1 63253U 25052AV  26230.70652011  .00002328  00000-0  20071-3 0  9996
2 63253  97.6776 121.9230 0002455  41.3538 318.7871 14.98263961 78033
Source of the keplerian elements: AFSPC